Back to catalog

YAOGAN-43 02F

AliveMilitaryVLEO
NORAD 60950·PAYLOAD·🇨🇳 China

Launched Sep 3, 2024 from Xichang Satellite Launch Center

Loading…

Next Passes (next 24 hours)

TLE

FreshSource: Space-Track

Epoch: Sep 14, 2026, 15:45 UTC

1 60950U 24156F   26257.65694054  .00006795  00000-0  28354-3 0  9991
2 60950  34.9947 355.1670 0001164  47.6070 312.4743 15.22977436113095

Track YAOGAN-43 02F in real time with AllMySat

Download on the App Store